Regional Weather Roundup
Issued by NWS Memphis, TN

Home | Current Version | Previous Version | Text Only | Print | Product List | Glossary On
Versions: 1 2 3 4 5 6 7 8 9 10 11 12 13 14 15 16 17 18 19 20 21 22 23 24 25 26 27 28 29 30 31 32 33 34 35 36 37 38 39 40 41 42 43 44 45 46 47 48 49 50
000
ASUS44 KMEG 180010
RWRMEG
MEMPHIS CWA HOURLY WEATHER ROUNDUP
NATIONAL WEATHER SERVICE MEMPHIS TN
700 PM CDT THU APR 17 2014

...WEST TENNESSEE...

CITY           SKY/WX    TMP DP  RH WIND       PRES   REMARKS
MEMPHIS INTL   MOCLDY    68  39  34 SE7       30.20R
6HR MIN TEMP:  66; 6HR MAX TEMP:  71;

NWS MEMPHIS      N/A     68 N/A N/A MISG        N/A
JACKSON        PTCLDY    66  37  34 E3        30.21S
6HR MIN TEMP:  65; 6HR MAX TEMP:  70;

SAVANNAH       PTCLDY    64  41  43 CALM      30.22
DYERSBURG      PTCLDY    66  37  34 E3        30.22S
6HR MIN TEMP:  64; 6HR MAX TEMP:  70;

PARIS          CLEAR     63  37  37 E3        30.22


...EASTERN ARKANSAS...

CITY           SKY/WX    TMP DP  RH WIND       PRES   REMARKS
JONESBORO      PTCLDY    65  39  38 S3        30.20S
6HR MIN TEMP:  64; 6HR MAX TEMP:  67;

WEST MEMPHIS   PTCLDY    66  44  45 S5        30.19R
6HR MIN TEMP:  65; 6HR MAX TEMP:  70;

BATESVILLE     MOCLDY    66  43  42 E12       30.19S
6HR MIN TEMP:  66; 6HR MAX TEMP:  70;

NEWPORT        PTCLDY    66  42  41 S5        30.21F
6HR MIN TEMP:  64; 6HR MAX TEMP:  69;

WALNUT RIDGE   PTCLDY    64  45  48 S3        30.22R
6HR MIN TEMP:  63; 6HR MAX TEMP:  66;

BLYTHEVILLE    PTCLDY    66  42  41 SE5       30.21S
6HR MIN TEMP:  64; 6HR MAX TEMP:  68;

SEARCY         PTCLDY    67  43  41 E7        30.20S
6HR MIN TEMP:  66; 6HR MAX TEMP:  70;

STUTTGART      MOCLDY    66  45  45 SE7       30.20S
6HR MIN TEMP:  66; 6HR MAX TEMP:  70;

PINE BLUFF     MOCLDY    64  47  53 E8        30.19S
6HR MIN TEMP:  64; 6HR MAX TEMP:  68;

MONTICELLO     CLOUDY    65  47  52 E3        30.18R
6HR MIN TEMP:  65; 6HR MAX TEMP:  68; 6HR PCP: TRACE;



...NORTH MISSISSIPPI...

CITY           SKY/WX    TMP DP  RH WIND       PRES   REMARKS
TUPELO         CLOUDY    66  43  43 SE3       30.20S
6HR MIN TEMP:  56; 6HR MAX TEMP:  69;

OLIVE BRANCH   CLOUDY    64  41  42 SE7       30.21R
CLARKSDALE       N/A     64  50  59 CALM      30.21R
CORINTH        CLOUDY    64  41  42 SE6       30.21R
GREENWOOD      CLOUDY    65  46  50 E5        30.19S
6HR MIN TEMP:  65; 6HR MAX TEMP:  70;

COLUMBUS       CLOUDY    65  49  56 S8        30.21S
6HR MIN TEMP:  65; 6HR MAX TEMP:  70;

GOLDEN TRIANGL PTCLDY    63  48  59 S7        30.24R


...SOUTHEAST MISSOURI...

CITY           SKY/WX    TMP DP  RH WIND       PRES   REMARKS
WEST PLAINS    PTCLDY    63  35  35 CALM      30.20S
6HR MIN TEMP:  62; 6HR MAX TEMP:  67;

POPLAR BLUFF   CLEAR     64  44  48 SE5       30.21S
6HR MIN TEMP:  63; 6HR MAX TEMP:  67;

CAPE GIRARDEAU CLEAR     62  45  53 SW3       30.23S
6HR MIN TEMP:  62; 6HR MAX TEMP:  67;



...NORTHWEST ALABAMA...

CITY           SKY/WX    TMP DP  RH WIND       PRES   REMARKS
MUSCLE SHOALS  CLOUDY    63  45  51 E6        30.24S
6HR MIN TEMP:  63; 6HR MAX TEMP:  70;



...MIDDLE TENNESSEE...

CITY           SKY/WX    TMP DP  RH WIND       PRES   REMARKS
NASHVILLE      MOCLDY    63  37  38 S5        30.26S
6HR MIN TEMP:  63; 6HR MAX TEMP:  69;

CLARKSVILLE    CLEAR     63  37  38 SE8       30.23F
6HR MIN TEMP:  63; 6HR MAX TEMP:  68;

DICKSON        CLEAR     64  32  29 SE5       30.24F
LEWISBURG      PTCLDY    63  44  49 S5        30.25S


...WESTERN KENTUCKY...

CITY           SKY/WX    TMP DP  RH WIND       PRES   REMARKS
PADUCAH        CLEAR     66  39  37 S5        30.22S
6HR MIN TEMP:  66; 6HR MAX TEMP:  70;

FORT CAMPBELL  CLEAR     64  34  32 E6        30.23S


...CENTRAL ARKANSAS...

CITY           SKY/WX    TMP DP  RH WIND       PRES   REMARKS
LITTLE ROCK    MOCLDY    65  43  44 SE9       30.18S
6HR MIN TEMP:  65; 6HR MAX TEMP:  70;



SKY/WX REPORTED AS FAIR MEANS FEW OR NO CLOUDS BELOW
12 THOUSAND FEET.




USA.gov is the U.S. government's official web portal to all federal, state and local government web resources and services.